Location: LDNL
(36.4545°S, 141.6685°E)
Time: 11:17:51
(UTC+10:00)

Explorer 7 - Pass Details

Date: 17 August 2022
Orbit: 482 x 668 km, 50.3° (Epoch: 26 September)

Event Time Altitude Azimuth Distance (km) Brightness Sun altitude
Rises 14:30:04 0° 7° (N) 2,970 11.2 33.5°
Maximum altitude 14:35:23 10° 56° (NE) 2,099 9.9 32.9°
Drops below altitude 10° 14:35:51 10° 62° (ENE) 2,109 9.8 32.8°
Sets 14:40:45 0° 105° (ESE) 3,023 10.2 32.3°
